Regional Weather Roundup
Issued by NWS Jackson, KY

Home | Current Version | Previous Version | Text Only | Print | Product List | Glossary Off
Versions: 1 2 3 4 5 6 7 8 9 10 11 12 13 14 15 16 17 18 19 20 21 22 23 24 25 26 27 28 29 30 31 32 33 34 35 36 37 38 39 40 41 42 43 44 45 46 47 48 49 50

000
ASUS43 KJKL 280810
RWRJKL

EAST KENTUCKY HOURLY WEATHER ROUNDUP
NATIONAL WEATHER SERVICE JACKSON KY
400 AM EDT FRI AUG 28 2015

NOTE: "FAIR" INDICATES FEW OR NO CLOUDS BELOW 12,000 FEET WITH
NO SIGNIFICANT WEATHER AND/OR OBSTRUCTIONS TO VISIBILITY.

* THESE REPORTS ARE NOT UNDER NWS QUALITY CONTROL AND MAY NOT
  REPORT WEATHER SUCH AS PRECIPITATION AND FOG.

KYZ079-080-083-085-087-088-110-112-115-119-120-280900
...EASTERN KENTUCKY...

CITY           SKY/WX    TMP DP  RH WIND       PRES   REMARKS
JACKSON        CLEAR     60  55  83 CALM      30.13F
LONDON         CLEAR     59  53  80 CALM      30.12F
SOMERSET*      CLEAR     55  55 100 CALM      30.13S
MONTICELLO*    CLEAR     54  54 100 CALM      30.14S
WILLIAMSBURG*    N/A    N/A N/A N/A CALM        N/A
MIDDLESBORO*   CLEAR     58  58  98 CALM      30.13S
HAZARD APT*    MOSUNNY   55  55 100 CALM      30.13S FOG
BLACK MTN*       N/A     59  57  94 S1          N/A
PIKEVILLE APT* MOCLDY    57  57 100 CALM      30.13F
BIG SANDY*     SUNNY     56  56  99 CALM      30.13F FOG
MOREHEAD APT*  SUNNY     61  54  77 CALM      30.15S
$$

KYZ035-036-041-042-044-050-067-078-099-280900
...CENTRAL KENTUCKY...

CITY           SKY/WX    TMP DP  RH WIND       PRES   REMARKS
MT STERLING*   CLEAR     52  52 100 CALM      30.15S
FLEMING/MASON* CLEAR     55  55 100 N3        30.16R
DANVILLE*      CLEAR     52  52 100 CALM      30.14S
RICHMOND*      CLEAR     54  52  94 CALM      30.13S
LEXINGTON      CLEAR     55  51  86 CALM      30.14R
FRANKFORT      CLEAR     55  52  89 N3        30.13R
$$

KYZ091>093-OHZ055-061-077-WVZ005-015-034-035-042-280900
...SOUTHERN OHIO/WEST VIRGINIA...

CITY           SKY/WX    TMP DP  RH WIND       PRES   REMARKS
COVINGTON      PTCLDY    58  55  90 CALM      30.14S
COLUMBUS       CLEAR     58  55  90 CALM      30.16R
DAYTON         CLEAR     57  55  93 CALM      30.17R
WILMINGTON     CLEAR     52  50  93 CALM      30.15S
HUNTINGTON     CLEAR     54  54 100 CALM      30.13S
CHARLESTON     FOG       56  55  97 CALM      30.13F VSB 1/2
PINEVILLE*     CLEAR     55  55 100 MISG      30.20S FOG
BECKLEY        CLEAR     59  54  83 SE7       30.18F
BLUEFIELD      CLEAR     62  55  77 SE3       30.20S
$$

VAZ002-007-008-TNZ017-027-036-066-071-280900
...SOUTHWEST VIRGINIA/EAST TENNESSEE...

CITY           SKY/WX    TMP DP  RH WIND       PRES   REMARKS
WISE*          CLEAR     57  57 100 CALM      30.19S
JONESVILLE*    MOSUNNY   57  57 100 CALM      30.15S
ABINGDON*      CLEAR     61  57  87 CALM      30.16S
BRISTOL        PTCLDY    60  58  92 CALM      30.14S
KNOXVILLE      PTCLDY    67  60  78 E5        30.08S
OAK RIDGE      CLEAR     65  59  81 E3        30.11S
CROSSVILLE     CLEAR     60  55  83 CALM      30.13F
NASHVILLE      CLEAR     65  56  72 NE3       30.08F
$$

...KEY TO REMARKS...
VSB - VISIBILITY IN MILES
WCI - WIND CHILL INDEX
HX  - HEAT INDEX

$$


USA.gov is the U.S. government's official web portal to all federal, state and local government web resources and services.